C/2018 P5 ( PanSTARRS )

Japanese version
Home page
Updated on September 23, 2018

---------------------------------------------------------------------

* Profile

Discovery Date August 11, 2018
Magnitude 20.9 mag
Discoverer Pan-STARRS 1 telescope (Haleakala)

* Orbital Elements

Epoch 2019 Feb. 6.0 TT = JDT 2458520.5
T 2019 Feb. 25.92342 TT                                 MPCW
q   4.5763613            (2000.0)            P               Q
n   0.02168122     Peri.  131.59031     +0.97400520     +0.21386070
a  12.7373831      Node   216.24531     -0.22647522     +0.92630028
e   0.6407142      Incl.    7.25665     +0.00477937     +0.31021185
P  45.46
From 49 observations 2018 June 16-Sept. 8, mean residual 0".5.

* Magnitudes Graph

        m1 = 10.5 + 5 log d + 10.0 log r

---------------------------------------------------------------------

The orbital elements are published on M.P.E.C. 2018-S50.
The magnitudes graphs are made with Comet for Windows.

---------------------------------------------------------------------

Copyright(C) Seiichi Yoshida (comet@aerith.net). All rights reserved.